Flag for Russia Weather past 2 weeks in Murmansk, Russia

Now
23 °F

Passing clouds.


Feels Like: 23 °F
Forecast: 31 / 43 °F
Wind: No wind

Location: Murmansk Airport

Current Time: Sep 20, 2014 at 8:04:39 AM

Latest Report: Sep 20, 2014 at 7:00 AM


Visibility: 0 mi

Pressure: 29.89 "Hg

Humidity: 93%

Dew point: 21 °F

Location of MurmanskLocation

Historic Weather in Murmansk — Graph

°F

Murmansk temperature yesterday

Maximum temperature yesterday: 48 °F (at 5:00 PM)
Minimum temperature yesterday: 28 °F (at 10:30 PM)
Average temperature yesterday: 39 °F

Past Weeks' High & Low Weather Summary

 TemperatureHumidityPressure
High63 °F (Sep 11, 1:30 PM)100% (Sep 7, 4:00 AM)30.39 "Hg (Sep 7, 4:00 AM)
Low23 °F (Sep 20, 6:30 AM)38% (Sep 14, 3:00 PM)29.74 "Hg (Sep 5, 6:00 AM)
Average47 °F76%30.04 "Hg
* Reported Sep 5 6:00 AM — Sep 20 6:30 AM, Murmansk, Weather by CustomWeather, © 2014

Note: Actual official high and low records may vary slightly from our data, if they occured in-between our weather recording intervals... More about our weather records

Advertising

Murmansk weather history for previous 24 hours

 ConditionsComfort  
Time TempWeatherWind HumidityBarometerVisibility
6:30 AM
Sep 20
23 °FIce fog.No wind100%29.89 "Hg0 mi
6:00 AM25 °FIce fog.No wind93%29.89 "Hg0 mi
5:00 AM25 °FCold.No wind100%29.92 "HgN/A
4:00 AM25 °FIce fog.No wind93%29.92 "Hg1 mi
3:30 AM25 °FPassing clouds.No wind93%29.92 "Hg0 mi
3:00 AM25 °FIce fog.No wind93%29.95 "Hg1 mi
2:30 AM25 °FClear.No wind93%29.95 "Hg10 mi
2:00 AM25 °FClear.1 mph93%29.95 "Hg10 mi
1:00 AM27 °FClear.3 mph93%29.98 "Hg10 mi
12:30 AM27 °FClear.3 mph93%29.98 "Hg10 mi
12:00 AM28 °FClear.3 mph86%29.98 "Hg10 mi
11:30 PM
Sep 19
28 °FClear.1 mph93%29.98 "Hg10 mi
11:00 PM28 °FClear.3 mph93%29.98 "Hg10 mi
10:30 PM28 °FClear.1 mph93%29.98 "Hg10 mi
10:00 PM30 °FClear.1 mph86%29.98 "Hg10 mi
9:00 PM37 °FSunny.3 mph75%29.98 "Hg10 mi
8:30 PM39 °FSunny.3 mph70%29.98 "Hg10 mi
8:00 PM39 °FSunny.1 mph70%29.98 "Hg10 mi
7:30 PM39 °FSunny.No wind70%29.98 "Hg10 mi
7:00 PM45 °FSunny.1 mph57%30.01 "Hg10 mi
6:30 PM46 °FSunny.3 mph50%30.01 "Hg10 mi
6:00 PM46 °FSunny.6 mph50%30.01 "Hg10 mi
5:30 PM48 °FSunny.6 mph46%30.01 "Hg10 mi
5:00 PM48 °FSunny.6 mph46%30.01 "Hg10 mi
4:30 PM46 °FPassing clouds.6 mph50%30.01 "HgN/A
4:00 PM46 °FSunny.6 mph50%30.01 "Hg10 mi
3:30 PM46 °FPassing clouds.6 mph50%30.01 "HgN/A
3:00 PM46 °FPassing clouds.8 mph53%30.01 "HgN/A
2:30 PM46 °FPassing clouds.6 mph53%30.01 "HgN/A
2:00 PM46 °FPassing clouds.3 mph50%30.01 "HgN/A
1:30 PM45 °FPassing clouds.6 mph53%30.04 "HgN/A
1:00 PM43 °FSunny.6 mph61%30.04 "Hg10 mi
12:30 PM43 °FSunny.6 mph61%30.04 "Hg10 mi
12:00 PM43 °FSunny.6 mph61%30.04 "Hg10 mi
11:30 AM41 °FSunny.6 mph66%30.04 "Hg10 mi
11:00 AM39 °FSunny.No wind70%30.04 "Hg10 mi
10:30 AM39 °FSunny.No wind75%30.07 "Hg10 mi
10:00 AM37 °FSunny.1 mph81%30.07 "Hg10 mi
9:30 AM37 °FSunny.1 mph75%30.07 "Hg10 mi
9:00 AM36 °FSunny.No wind81%30.07 "Hg10 mi
8:30 AM34 °FPartly sunny.1 mph81%30.07 "HgN/A
8:00 AM36 °FPassing clouds.No wind81%30.07 "HgN/A
Weather by CustomWeather, © 2014

See weather overviewHow to use our weather pages